User: anonymous
Location: Vancouver
(49.2500°N, 123.1330°W)
Time: 09:16:42
(UTC-07:00)
Language:

BREEZE-M DEB (TANK) - Orbit

View from above orbital plane
View from above orbital plane
View from above satellite
View from above satellite

Ground track
Ground track

The orbit data is extracted from the following two-line orbital elements,

1 27821U 03024B   14271.86079023  .00005809  00000-0  69424-3 0  4972
2 27821 049.5871 074.9711 5008136 002.2363 080.0913 05.63249200223823
Epoch (UTC): 28 September 2014 20:39:32
Eccentricity: 0.5008136
inclination: 49.5871°
perigee height: 283 km
apogee height: 13648 km
right ascension of ascending node: 74.9711°
argument of perigee: 2.2363°
revolutions per day: 5.63249200
mean anomaly at epoch: 80.0913°
orbit number at epoch: 22382

The dashed part of the orbit path shows where the satellite is in the earth's shadow,  

DLR